Time,0.3(/L),0.5(/L),0.7(/L),1.0(/L),2.0(/L),5.0(/L),AT(C),RH(%),Location
10-JUL-2011  08:24:41,     14803,       890,       349,       185,        63,        15,,,  1
10-JUL-2011  08:24:45,     14692,       747,       254,       105,        31,         0,,,  1
10-JUL-2011  08:24:49,     13924,       709,       264,       148,        79,        10,,,  1
10-JUL-2011  08:24:53,     13770,       725,       217,       105,        37,         5,,,  1
10-JUL-2011  08:24:57,     13829,       789,       286,       158,        58,        10,,,  1
10-JUL-2011  08:25:01,     13876,       720,       328,       201,        90,        10,,,  1
10-JUL-2011  08:25:05,     14178,       752,       249,       137,        74,         5,,,  1
10-JUL-2011  08:25:09,     14194,       672,       217,       132,        47,         5,,,  1
10-JUL-2011  08:25:13,     14374,       773,       360,       206,        68,        15,,,  1
10-JUL-2011  08:25:17,     14162,       805,       190,       132,        42,         0,,,  1
10-JUL-2011  08:25:21,     14083,       694,       222,       116,        31,         0,,,  1
10-JUL-2011  08:25:25,     13564,       672,       259,       143,        63,        10,,,  1
10-JUL-2011  08:25:29,     13452,       709,       211,       121,        47,         0,,,  1
10-JUL-2011  08:25:33,     13675,       731,       217,       121,        52,        10,,,  1
10-JUL-2011  08:25:37,     13352,       757,       275,       132,        68,        21,,,  1
10-JUL-2011  08:25:41,     14491,       826,       312,       174,        74,        10,,,  1
10-JUL-2011  08:25:45,     13749,       672,       206,       121,        42,        10,,,  1
10-JUL-2011  08:25:49,     14348,       630,       201,        95,        31,         0,,,  1
10-JUL-2011  08:25:53,     14623,       752,       259,       164,        79,         5,,,  1
10-JUL-2011  08:25:57,     14353,       874,       323,       169,        42,         0,,,  1
10-JUL-2011  08:26:01,     13738,       731,       270,       153,        63,         5,,,  1
10-JUL-2011  08:26:05,     14056,       604,       196,        90,        47,         5,,,  1
10-JUL-2011  08:26:09,     13654,       768,       275,       158,        79,        26,,,  1
10-JUL-2011  08:26:13,     13866,       826,       227,       127,        58,         0,,,  1
10-JUL-2011  08:26:17,     14189,       715,       196,       100,        37,         5,,,  1
10-JUL-2011  08:26:21,     14093,       641,       185,       105,        31,         0,,,  1
10-JUL-2011  08:26:25,     13495,       768,       259,       127,        74,        15,,,  1
10-JUL-2011  08:26:29,     13723,       641,       196,       116,        42,         0,,,  1
10-JUL-2011  08:26:33,     13590,       810,       275,       153,        47,        10,,,  1
10-JUL-2011  08:26:37,     13505,       699,       222,       111,        21,        10,,,  1
10-JUL-2011  08:26:41,     14189,       667,       243,       137,        58,        10,,,  1
10-JUL-2011  08:26:45,     13601,       604,       169,        95,        31,         0,,,  1
10-JUL-2011  08:26:49,     14035,       715,       286,       132,        31,         5,,,  1
10-JUL-2011  08:26:53,     14025,       683,       238,       121,        52,         0,,,  1
10-JUL-2011  08:26:57,     14162,       773,       243,       143,        47,        21,,,  1
10-JUL-2011  08:27:01,     14184,       699,       259,       105,        58,         0,,,  1
10-JUL-2011  08:27:05,     14565,       842,       328,       174,        74,        10,,,  1
10-JUL-2011  08:27:09,     14777,       773,       211,       105,        26,         0,,,  1
10-JUL-2011  08:27:13,     15339,       646,       211,       116,        37,         5,,,  1
10-JUL-2011  08:27:17,     14025,       694,       206,        68,        21,         5,,,  1
10-JUL-2011  08:27:21,     13924,       715,       185,        68,        31,         0,,,  1
10-JUL-2011  08:27:25,     13887,       762,       243,       111,        42,        21,,,  1
10-JUL-2011  08:27:29,     13903,       762,       227,        79,        37,         0,,,  1
10-JUL-2011  08:27:33,     13691,       805,       291,       169,        74,        15,,,  1
10-JUL-2011  08:27:37,     16017,       625,       201,       116,        21,         5,,,  1
10-JUL-2011  08:27:41,     15725,       768,       249,       127,        52,         5,,,  1
10-JUL-2011  08:27:45,     14480,       805,       254,       174,        84,         5,,,  1
10-JUL-2011  08:27:49,     14825,       720,       206,       116,        68,        15,,,  1
10-JUL-2011  08:27:53,     14252,       641,       227,       121,        31,         0,,,  1
10-JUL-2011  08:27:57,     14496,       800,       254,       180,        63,        21,,,  1
10-JUL-2011  08:28:01,     15121,       709,       222,       111,        58,         5,,,  1
10-JUL-2011  08:28:05,     14872,       731,       286,       180,        79,        10,,,  1
10-JUL-2011  08:28:09,     14883,       651,       280,       105,        37,        10,,,  1
10-JUL-2011  08:28:13,     15397,       874,       302,       164,        63,         5,,,  1
10-JUL-2011  08:28:17,     15429,       741,       201,       105,        42,         5,,,  1
10-JUL-2011  08:28:21,     15492,       741,       233,       121,        63,        10,,,  1
10-JUL-2011  08:28:25,     15296,       810,       307,       185,        84,        21,,,  1
10-JUL-2011  08:28:29,     14528,       800,       296,       127,        58,         5,,,  1
10-JUL-2011  08:28:33,     15037,       725,       264,       143,        31,        10,,,  1
10-JUL-2011  08:28:37,     15413,       837,       296,       190,       100,        26,,,  1
10-JUL-2011  08:28:41,     15021,      1170,       598,       360,       243,        90,,,  1
10-JUL-2011  08:28:45,     15906,      1361,       826,       625,       429,       169,,,  1
10-JUL-2011  08:28:49,     14650,      1239,       678,       492,       275,       100,,,  1
10-JUL-2011  08:28:53,     12552,       694,       323,       233,       158,        47,,,  1
10-JUL-2011  08:28:57,     12981,      1329,       858,       667,       513,       270,,,  1
10-JUL-2011  08:29:01,     12605,      1679,      1234,      1075,       858,       460,,,  1
10-JUL-2011  08:29:05,     12038,      1552,      1075,       906,       688,       328,,,  1
10-JUL-2011  08:29:09,     13638,      3311,      2802,      2622,      2368,      1658,,,  1
10-JUL-2011  08:29:13,     12366,      1875,      1377,      1218,       990,       503,,,  1
10-JUL-2011  08:29:17,     13421,      2193,      1684,      1525,      1282,       577,,,  1
10-JUL-2011  08:29:21,     12356,       773,       349,       243,       137,        74,,,  1
10-JUL-2011  08:29:25,     12011,       815,       249,       132,        68,        15,,,  1
10-JUL-2011  08:29:29,     11910,       694,       307,       180,       111,        42,,,  1
10-JUL-2011  08:29:33,     12377,       805,       259,       164,        90,        26,,,  1
10-JUL-2011  08:29:37,     12350,       778,       370,       264,       180,        58,,,  1
10-JUL-2011  08:29:41,     11985,       609,       233,       148,        90,        21,,,  1
10-JUL-2011  08:29:45,     12467,       588,       259,       164,        79,        10,,,  1
10-JUL-2011  08:29:49,     11820,       709,       291,       185,        95,        26,,,  1
10-JUL-2011  08:29:53,     11269,       588,       211,       137,        68,        21,,,  1
10-JUL-2011  08:29:57,     10639,       519,       174,       105,        52,         5,,,  1
10-JUL-2011  08:30:01,     10226,       551,       217,       111,        63,        15,,,  1
10-JUL-2011  08:30:05,     10337,       635,       264,       180,       132,        26,,,  1
10-JUL-2011  08:30:09,     10655,       646,       291,       153,        74,        15,,,  1
10-JUL-2011  08:30:13,     13219,      2135,      1605,      1441,      1239,       551,,,  1
10-JUL-2011  08:30:17,     13500,      1006,       540,       370,       196,        63,,,  1
10-JUL-2011  08:30:21,     13468,       959,       471,       386,       254,        58,,,  1
10-JUL-2011  08:30:25,     15206,       879,       365,       217,       111,        15,,,  1
10-JUL-2011  08:30:29,     14263,       747,       280,       143,        58,         0,,,  1
10-JUL-2011  08:30:33,     13643,       704,       238,       116,        68,        10,,,  1
10-JUL-2011  08:30:37,     13696,       672,       259,       153,        52,        15,,,  1
10-JUL-2011  08:30:41,     13580,       789,       296,       174,        74,        15,,,  1
10-JUL-2011  08:30:45,     13187,       646,       222,       121,        47,         0,,,  1
10-JUL-2011  08:30:49,     13410,       625,       190,       105,        47,        15,,,  1
10-JUL-2011  08:30:53,     12594,       725,       275,       164,        84,         5,,,  1
10-JUL-2011  08:30:57,     13071,       752,       270,       217,        95,        15,,,  1
10-JUL-2011  08:31:01,     12212,       768,       249,       137,        74,        10,,,  1
10-JUL-2011  08:31:05,     12462,       731,       286,       196,        95,        15,,,  1
10-JUL-2011  08:31:09,     12462,       672,       280,       169,        68,         0,,,  1
10-JUL-2011  08:31:13,     12567,       635,       243,       143,        74,        10,,,  1
10-JUL-2011  08:31:17,     12271,       651,       280,       185,       116,        26,,,  1
10-JUL-2011  08:31:21,     11349,       588,       217,       153,        52,         5,,,  1
10-JUL-2011  08:31:25,     12403,       731,       339,       222,       111,         5,,,  1
10-JUL-2011  08:31:29,     12668,       709,       270,       132,        58,         0,,,  1
10-JUL-2011  08:31:33,     12594,       757,       286,       180,        95,        15,,,  1
10-JUL-2011  08:31:37,     12700,       969,       413,       249,       153,        31,,,  1
10-JUL-2011  08:31:41,     12896,      1324,       715,       498,       270,        26,,,  1
10-JUL-2011  08:31:45,     12896,       805,       307,       143,        79,        15,,,  1
10-JUL-2011  08:31:49,     13166,       789,       376,       206,        79,        15,,,  1
10-JUL-2011  08:31:53,     12838,       757,       307,       169,        74,         0,,,  1
10-JUL-2011  08:31:57,     12626,       741,       307,       169,        79,         5,,,  1
10-JUL-2011  08:32:01,     12520,       709,       217,       111,        31,         0,,,  1
10-JUL-2011  08:32:05,     13177,       593,       185,       100,        52,        10,,,  1
10-JUL-2011  08:32:09,     12875,       646,       190,       132,        52,         0,,,  1
10-JUL-2011  08:32:13,     12716,       662,       227,       105,        42,        10,,,  1
10-JUL-2011  08:32:17,     12562,       762,       312,       206,       111,        10,,,  1
10-JUL-2011  08:32:21,     12605,       635,       328,       153,        63,         0,,,  1
10-JUL-2011  08:32:25,     12997,       810,       280,       174,       105,        15,,,  1
10-JUL-2011  08:32:29,     13256,       657,       249,       174,        74,        15,,,  1
10-JUL-2011  08:32:33,     12981,       699,       227,       116,        37,         5,,,  1
10-JUL-2011  08:32:37,     12705,       688,       254,       148,        84,        26,,,  1
10-JUL-2011  08:32:41,     13574,      1467,       953,       757,       556,       201,,,  1
10-JUL-2011  08:32:45,     13532,       678,       243,       137,        68,        15,,,  1
10-JUL-2011  08:32:49,     12838,       815,       312,       211,       127,        42,,,  1
10-JUL-2011  08:32:53,     13092,       651,       206,       116,        52,        10,,,  1
10-JUL-2011  08:32:57,     13611,       662,       185,       111,        79,        10,,,  1
10-JUL-2011  08:33:01,     12965,       662,       254,       158,        58,        15,,,  1
10-JUL-2011  08:33:05,     13378,       736,       291,       169,        79,        10,,,  1
10-JUL-2011  08:33:09,     11879,       731,       249,       158,        52,         5,,,  1
10-JUL-2011  08:33:13,     11921,       694,       275,       158,        63,         0,,,  1
10-JUL-2011  08:33:17,     11582,       529,       206,       116,        42,         0,,,  1
10-JUL-2011  08:33:21,     11264,       614,       233,       148,        68,         5,,,  1
10-JUL-2011  08:33:25,     11858,       524,       169,        79,        42,         0,,,  1
10-JUL-2011  08:33:29,     11948,       466,       132,        68,         0,         0,,,  1
10-JUL-2011  08:33:33,     12149,       582,       174,        74,        15,         0,,,  1
10-JUL-2011  08:33:37,     11370,       582,       185,       100,        21,         0,,,  1
10-JUL-2011  08:33:41,     11651,       566,       164,        52,        21,         0,,,  1
10-JUL-2011  08:33:45,     12069,       657,       211,       105,        26,         0,,,  1
10-JUL-2011  08:33:49,     12112,       487,       153,        79,        15,         0,,,  1
10-JUL-2011  08:33:53,     12122,       725,       190,        95,        37,         0,,,  1
10-JUL-2011  08:33:57,     12234,       609,       222,        95,        52,         5,,,  1
10-JUL-2011  08:34:01,     12462,       715,       238,       111,        52,         0,,,  1
10-JUL-2011  08:34:05,     11895,       535,       185,       100,        21,         0,,,  1
10-JUL-2011  08:34:09,     12271,       683,       211,       100,        47,         5,,,  1
10-JUL-2011  08:34:13,     12308,       503,       201,       116,        37,         5,,,  1
10-JUL-2011  08:34:17,     12075,       646,       211,       121,        21,         0,,,  1
10-JUL-2011  08:34:21,     12260,       694,       180,        95,        42,         0,,,  1
10-JUL-2011  08:34:25,     11783,       715,       238,       132,        52,        21,,,  1
10-JUL-2011  08:34:29,     11699,       662,       196,        58,        21,         0,,,  1
10-JUL-2011  08:34:33,     11736,       667,       238,       116,        31,         5,,,  1
10-JUL-2011  08:34:37,     12318,       667,       275,       137,        52,         5,,,  1
10-JUL-2011  08:34:41,     11646,       598,       238,        79,        26,         0,,,  1
10-JUL-2011  08:34:45,     11269,       529,       180,       111,        37,         0,,,  1
10-JUL-2011  08:34:49,     11566,       646,       227,       121,        52,        10,,,  1
10-JUL-2011  08:34:53,     11492,       672,       275,       127,        63,        42,,,  1
10-JUL-2011  08:34:57,     11253,       657,       238,       100,        10,         0,,,  1
10-JUL-2011  08:35:01,     11561,       582,       206,        90,        26,         5,,,  1
10-JUL-2011  08:35:05,     11513,       667,       280,       227,       132,        52,,,  1
10-JUL-2011  08:35:09,     12096,       625,       275,       185,        52,         0,,,  1
10-JUL-2011  08:35:13,     11651,       715,       211,       143,        47,         0,,,  1
10-JUL-2011  08:35:17,     12069,       842,       407,       275,       143,        52,,,  1
10-JUL-2011  08:35:21,     11259,       540,       190,       116,        58,        10,,,  1
10-JUL-2011  08:35:25,     12991,       551,       217,       105,        47,         5,,,  1
10-JUL-2011  08:35:29,     11375,       545,       217,       105,        21,         0,,,  1
10-JUL-2011  08:35:33,     12149,       646,       254,       153,        37,         5,,,  1
10-JUL-2011  08:35:37,     11677,       513,       185,        68,        37,         5,,,  1
10-JUL-2011  08:35:41,     10692,       593,       201,       105,        42,         0,,,  1
10-JUL-2011  08:35:45,     11773,       588,       185,        90,        21,         0,,,  1
10-JUL-2011  08:35:49,     12287,       868,       376,       185,        63,        10,,,  1
10-JUL-2011  08:35:53,     12440,      1234,       588,       286,       111,         5,,,  1
10-JUL-2011  08:35:57,     11238,       556,       217,       137,        68,        10,,,  1
10-JUL-2011  08:36:01,     11693,       704,       296,       164,        84,        42,,,  1
10-JUL-2011  08:36:05,     11328,       657,       222,        90,        26,         0,,,  1
10-JUL-2011  08:36:09,      9706,       471,       153,        79,        10,         0,,,  1
10-JUL-2011  08:36:13,     10586,       540,       143,        58,        26,         0,,,  1
10-JUL-2011  08:36:17,     10506,       487,       201,       111,        31,         5,,,  1
10-JUL-2011  08:36:21,     10284,       519,       164,       100,        52,         0,,,  1
10-JUL-2011  08:36:25,      9987,       535,       180,        79,        21,         5,,,  1
10-JUL-2011  08:36:29,     10464,       635,       291,       143,        47,         0,,,  1
10-JUL-2011  08:36:33,     10353,       561,       180,        68,        26,         5,,,  1
10-JUL-2011  08:36:37,     10565,       635,       227,       116,        42,         5,,,  1
10-JUL-2011  08:36:41,     10512,       688,       254,       121,        52,         5,,,  1
10-JUL-2011  08:36:45,     10734,       556,       164,        79,        26,         0,,,  1
10-JUL-2011  08:36:49,     10533,       551,       270,       127,        52,         0,,,  1
10-JUL-2011  08:36:53,     10374,       678,       291,       105,        47,         5,,,  1
10-JUL-2011  08:36:57,      9992,       651,       222,       100,        26,         0,,,  1
10-JUL-2011  08:37:01,     10607,       709,       286,       127,        31,         5,,,  1
10-JUL-2011  08:37:05,     10385,       635,       211,        74,        21,         0,,,  1
10-JUL-2011  08:37:09,     10475,       476,       169,       100,        15,         5,,,  1
10-JUL-2011  08:37:13,     11126,       598,       217,       153,        58,         0,,,  1
10-JUL-2011  08:37:17,     10586,       582,       206,       127,        47,         0,,,  1
10-JUL-2011  08:37:21,     10655,       577,       185,       111,        47,         5,,,  1
10-JUL-2011  08:37:25,     10501,       455,       148,        63,        37,         5,,,  1
10-JUL-2011  08:37:29,     11524,       619,       259,       127,        58,         5,,,  1
10-JUL-2011  08:37:33,     10475,       572,       158,        95,        21,         5,,,  1
10-JUL-2011  08:37:37,      9786,       524,       174,        74,        37,        10,,,  1
10-JUL-2011  08:37:41,     10565,       540,       196,       100,        42,        10,,,  1
10-JUL-2011  08:37:45,     10400,       598,       185,       111,        31,         5,,,  1
10-JUL-2011  08:37:49,     10342,       545,       180,        90,        42,         5,,,  1
10-JUL-2011  08:37:53,     10358,       545,       196,        95,        31,         5,,,  1
10-JUL-2011  08:37:57,     10035,       646,       233,       127,        37,         5,,,  1
10-JUL-2011  08:38:01,     10586,       588,       180,        74,        31,        10,,,  1
10-JUL-2011  08:38:05,     10750,       588,       222,       137,        58,         0,,,  1
10-JUL-2011  08:38:09,     10257,       577,       185,       121,        63,         5,,,  1
10-JUL-2011  08:38:13,     10438,       561,       238,       143,        63,         5,,,  1
10-JUL-2011  08:38:17,     10183,       604,       227,       121,        42,         0,,,  1
10-JUL-2011  08:38:21,     10628,      1001,       593,       466,       317,        74,,,  1
10-JUL-2011  08:38:25,     10575,       678,       259,       169,        74,        10,,,  1
10-JUL-2011  08:38:29,     10602,       619,       275,       174,       100,         0,,,  1
10-JUL-2011  08:38:33,     10241,       529,       217,       121,        68,         5,,,  1
10-JUL-2011  08:38:37,     11545,       625,       249,       137,        47,         5,,,  1
10-JUL-2011  08:38:41,     10448,       556,       185,        95,        42,         0,,,  1
10-JUL-2011  08:38:45,     11179,       577,       169,        90,        21,         0,,,  1
10-JUL-2011  08:38:49,     10787,       566,       185,       100,        47,         0,,,  1
10-JUL-2011  08:38:53,     10183,       577,       211,       105,        31,         0,,,  1
10-JUL-2011  08:38:57,     11020,       577,       227,       127,        42,         0,,,  1
10-JUL-2011  08:39:01,     11471,       540,       211,        84,        21,         5,,,  1
10-JUL-2011  08:39:05,     10750,       566,       233,        84,        26,         5,,,  1
10-JUL-2011  08:39:09,     11190,       662,       264,       153,        68,        15,,,  1
10-JUL-2011  08:39:13,     10845,       593,       222,       116,        47,        15,,,  1
10-JUL-2011  08:39:17,     11555,       551,       190,        74,        31,         5,,,  1
10-JUL-2011  08:39:21,     11195,       545,       185,        79,        21,         0,,,  1
10-JUL-2011  08:39:25,     10671,       540,       190,        90,        26,         5,,,  1
10-JUL-2011  08:39:29,     10697,       540,       137,        52,        26,         0,,,  1
10-JUL-2011  08:39:33,     10083,       630,       233,       105,        31,         0,,,  1
10-JUL-2011  08:39:37,     10459,       540,       164,        74,        26,        10,,,  1
10-JUL-2011  08:39:41,     10634,       529,       180,       105,        42,         5,,,  1
10-JUL-2011  08:39:45,     10660,       471,       169,        90,        21,         5,,,  1
10-JUL-2011  08:39:49,     10973,       662,       217,       111,        37,         5,,,  1
10-JUL-2011  08:39:53,     11068,       625,       264,       148,        37,        10,,,  1
10-JUL-2011  08:39:57,     10877,       593,       201,       105,        26,         0,,,  1
10-JUL-2011  08:40:01,     10766,       572,       206,       105,        42,         5,,,  1
10-JUL-2011  08:40:05,     10824,       524,       201,       127,        47,         0,,,  1
10-JUL-2011  08:40:09,     11132,       593,       211,       143,        74,         0,,,  1
10-JUL-2011  08:40:13,     11110,       646,       254,       148,        79,        10,,,  1
10-JUL-2011  08:40:17,     10671,       662,       233,       148,        95,        15,,,  1
10-JUL-2011  08:40:21,     10782,       535,       190,       132,        58,        10,,,  1
10-JUL-2011  08:40:25,     11084,       561,       206,        95,        31,         5,,,  1
10-JUL-2011  08:40:29,     11296,       593,       206,       121,        58,         5,,,  1
10-JUL-2011  08:40:33,     11910,       667,       280,       158,        63,        10,,,  1
10-JUL-2011  08:40:37,     11587,       614,       206,       137,        58,         5,,,  1
10-JUL-2011  08:40:41,     11232,       662,       259,       158,        95,        21,,,  1
10-JUL-2011  08:40:45,     12313,       752,       217,        95,        31,         5,,,  1
10-JUL-2011  08:40:49,     11243,       593,       254,       143,        58,         5,,,  1
10-JUL-2011  08:40:53,     11163,       683,       233,       111,        42,        10,,,  1
10-JUL-2011  08:40:57,     14199,      1218,       402,       259,        95,        31,,,  1
10-JUL-2011  08:41:01,     13394,      1001,       275,       105,        31,        10,,,  1
10-JUL-2011  08:41:05,     12636,       974,       296,       169,        63,        21,,,  1
10-JUL-2011  08:41:09,     11910,       651,       227,       121,        58,         5,,,  1
10-JUL-2011  08:41:13,     11540,       720,       264,       127,        42,        10,,,  1
10-JUL-2011  08:41:17,     11879,       609,       243,       105,        26,        10,,,  1
10-JUL-2011  08:41:21,     11677,       715,       238,       127,        84,         5,,,  1